Time,TemperatureF,DewpointF,PressureIn,WindDirection,WindDirectionDegrees,WindSpeedMPH,WindSpeedGustMPH,Humidity,HourlyPrecipIn,Conditions,Clouds,dailyrainin,SoftwareType,DateUTC
2013-08-21 00:03:00,73.9,0.0,30.05,South,171,0.0,0.0,0,0.00,,---,0.00,VWS V14.00,2013-08-21 05:03:00,
2013-08-21 00:08:00,73.7,0.0,30.05,SE,137,0.0,0.0,0,0.00,,---,0.00,VWS V14.00,2013-08-21 05:08:00,
2013-08-21 00:13:00,73.5,0.0,30.05,SE,138,0.0,0.0,0,0.00,,---,0.00,VWS V14.00,2013-08-21 05:13:00,
2013-08-21 00:18:00,73.3,0.0,30.05,SE,136,0.0,0.0,0,0.00,,---,0.00,VWS V14.00,2013-08-21 05:18:00,
2013-08-21 00:23:00,73.3,0.0,30.05,SE,145,0.0,0.0,0,0.00,,---,0.00,VWS V14.00,2013-08-21 05:23:00,
2013-08-21 00:28:00,73.3,0.0,30.05,SSE,157,0.0,0.0,0,0.00,,---,0.00,VWS V14.00,2013-08-21 05:28:00,
2013-08-21 00:33:00,73.2,0.0,30.04,SSE,161,0.0,0.0,0,0.00,,---,0.00,VWS V14.00,2013-08-21 05:33:00,
2013-08-21 00:38:00,73.0,0.0,30.04,South,170,0.0,0.0,0,0.00,,---,0.00,VWS V14.00,2013-08-21 05:38:00,
2013-08-21 00:43:00,73.0,0.0,30.05,SSE,167,0.0,0.0,0,0.00,,---,0.00,VWS V14.00,2013-08-21 05:43:00,
2013-08-21 00:48:00,73.0,0.0,30.05,South,172,0.0,0.0,0,0.00,,---,0.00,VWS V14.00,2013-08-21 05:48:00,
2013-08-21 00:53:00,72.7,0.0,30.05,South,172,0.0,0.0,0,0.00,,---,0.00,VWS V14.00,2013-08-21 05:53:00,
2013-08-21 00:59:00,72.3,0.0,30.05,South,172,0.0,0.0,0,0.00,,---,0.00,VWS V14.00,2013-08-21 05:59:00,
2013-08-21 01:04:00,72.3,0.0,30.05,South,172,0.0,0.0,0,0.00,,---,0.00,VWS V14.00,2013-08-21 06:04:00,
2013-08-21 01:09:00,72.1,0.0,30.05,South,172,0.0,0.0,0,0.00,,---,0.00,VWS V14.00,2013-08-21 06:09:00,
2013-08-21 01:14:00,72.1,0.0,30.05,South,172,0.0,0.0,0,0.00,,---,0.00,VWS V14.00,2013-08-21 06:14:00,
2013-08-21 01:19:00,72.1,0.0,30.05,South,172,0.0,0.0,0,0.00,,---,0.00,VWS V14.00,2013-08-21 06:19:00,
2013-08-21 01:24:00,72.1,0.0,30.05,South,173,0.0,0.0,0,0.00,,---,0.00,VWS V14.00,2013-08-21 06:24:00,
2013-08-21 01:29:00,72.3,0.0,30.05,South,171,0.0,0.0,0,0.00,,---,0.00,VWS V14.00,2013-08-21 06:29:00,
2013-08-21 01:34:00,72.3,0.0,30.05,SSE,167,0.0,0.0,0,0.00,,---,0.00,VWS V14.00,2013-08-21 06:34:00,
2013-08-21 01:39:00,72.1,0.0,30.05,SSE,157,0.0,1.0,0,0.00,,---,0.00,VWS V14.00,2013-08-21 06:39:00,
2013-08-21 01:44:00,72.1,0.0,30.04,South,178,0.0,1.0,0,0.00,,---,0.00,VWS V14.00,2013-08-21 06:44:00,
2013-08-21 01:49:00,72.0,0.0,30.04,South,178,0.0,1.0,0,0.00,,---,0.00,VWS V14.00,2013-08-21 06:49:00,
2013-08-21 01:54:00,71.8,0.0,30.04,South,178,0.0,1.0,0,0.00,,---,0.00,VWS V14.00,2013-08-21 06:54:00,
2013-08-21 01:59:00,71.8,0.0,30.04,South,179,0.0,1.0,0,0.00,,---,0.00,VWS V14.00,2013-08-21 06:59:00,
2013-08-21 02:04:00,71.6,0.0,30.04,SSE,166,0.0,0.0,0,0.00,,---,0.00,VWS V14.00,2013-08-21 07:04:00,
2013-08-21 02:09:00,71.6,0.0,30.04,SSE,165,0.0,0.0,0,0.00,,---,0.00,VWS V14.00,2013-08-21 07:09:00,
2013-08-21 02:14:00,71.5,0.0,30.04,SE,142,0.0,0.0,0,0.00,,---,0.00,VWS V14.00,2013-08-21 07:14:00,
2013-08-21 02:19:00,71.5,0.0,30.04,SE,142,0.0,0.0,0,0.00,,---,0.00,VWS V14.00,2013-08-21 07:19:00,
2013-08-21 02:25:00,71.5,0.0,30.04,SE,144,0.0,0.0,0,0.00,,---,0.00,VWS V14.00,2013-08-21 07:25:00,
2013-08-21 02:30:00,71.3,0.0,30.04,SSE,160,0.0,0.0,0,0.00,,---,0.00,VWS V14.00,2013-08-21 07:30:00,
2013-08-21 02:35:00,71.3,0.0,30.04,SSE,157,0.0,0.0,0,0.00,,---,0.00,VWS V14.00,2013-08-21 07:35:00,
2013-08-21 02:40:00,71.3,0.0,30.04,SSE,157,0.0,0.0,0,0.00,,---,0.00,VWS V14.00,2013-08-21 07:40:00,
2013-08-21 02:45:00,71.1,0.0,30.04,SSE,155,0.0,0.0,0,0.00,,---,0.00,VWS V14.00,2013-08-21 07:45:00,
2013-08-21 02:50:00,71.1,0.0,30.04,SSE,150,0.0,1.0,0,0.00,,---,0.00,VWS V14.00,2013-08-21 07:50:00,
2013-08-21 02:55:00,71.1,0.0,30.04,SSE,150,0.0,1.0,0,0.00,,---,0.00,VWS V14.00,2013-08-21 07:55:00,
2013-08-21 03:00:00,71.1,0.0,30.04,South,180,0.0,1.0,0,0.00,,---,0.00,VWS V14.00,2013-08-21 08:00:00,
2013-08-21 03:05:00,70.9,0.0,30.04,South,180,0.0,0.0,0,0.00,,---,0.00,VWS V14.00,2013-08-21 08:05:00,
2013-08-21 03:10:00,70.9,0.0,30.04,South,173,0.0,0.0,0,0.00,,---,0.00,VWS V14.00,2013-08-21 08:10:00,
2013-08-21 03:15:00,70.8,0.0,30.04,South,173,0.0,0.0,0,0.00,,---,0.00,VWS V14.00,2013-08-21 08:15:00,
2013-08-21 03:20:00,70.8,0.0,30.04,South,174,0.0,0.0,0,0.00,,---,0.00,VWS V14.00,2013-08-21 08:20:00,
2013-08-21 03:25:00,70.6,0.0,30.04,South,174,0.0,0.0,0,0.00,,---,0.00,VWS V14.00,2013-08-21 08:25:00,
2013-08-21 03:30:00,70.4,0.0,30.04,South,174,0.0,0.0,0,0.00,,---,0.00,VWS V14.00,2013-08-21 08:30:00,
2013-08-21 03:35:00,70.3,0.0,30.04,South,174,0.0,0.0,0,0.00,,---,0.00,VWS V14.00,2013-08-21 08:35:00,
2013-08-21 03:40:00,70.3,0.0,30.04,South,174,0.0,0.0,0,0.00,,---,0.00,VWS V14.00,2013-08-21 08:40:00,
2013-08-21 03:46:00,70.4,0.0,30.04,South,174,0.0,0.0,0,0.00,,---,0.00,VWS V14.00,2013-08-21 08:46:00,
2013-08-21 03:51:00,70.6,0.0,30.04,South,174,0.0,0.0,0,0.00,,---,0.00,VWS V14.00,2013-08-21 08:51:00,
2013-08-21 03:56:00,70.6,0.0,30.04,South,173,0.0,0.0,0,0.00,,---,0.00,VWS V14.00,2013-08-21 08:56:00,
2013-08-21 04:01:00,70.8,0.0,30.04,South,173,0.0,0.0,0,0.00,,---,0.00,VWS V14.00,2013-08-21 09:01:00,
2013-08-21 04:06:00,70.8,0.0,30.04,South,173,0.0,0.0,0,0.00,,---,0.00,VWS V14.00,2013-08-21 09:06:00,
2013-08-21 04:11:00,70.8,0.0,30.04,South,173,0.0,0.0,0,0.00,,---,0.00,VWS V14.00,2013-08-21 09:11:00,
2013-08-21 04:16:00,70.8,0.0,30.04,South,173,0.0,0.0,0,0.00,,---,0.00,VWS V14.00,2013-08-21 09:16:00,
2013-08-21 04:21:00,70.8,0.0,30.04,South,173,0.0,0.0,0,0.00,,---,0.00,VWS V14.00,2013-08-21 09:21:00,
2013-08-21 04:26:00,70.8,0.0,30.04,South,175,0.0,0.0,0,0.00,,---,0.00,VWS V14.00,2013-08-21 09:26:00,
2013-08-21 04:31:00,70.6,0.0,30.04,SE,141,0.0,0.0,0,0.00,,---,0.00,VWS V14.00,2013-08-21 09:31:00,
2013-08-21 04:36:00,70.6,0.0,30.04,SE,146,0.0,0.0,0,0.00,,---,0.00,VWS V14.00,2013-08-21 09:36:00,
2013-08-21 04:41:00,70.6,0.0,30.05,SE,146,0.0,0.0,0,0.00,,---,0.00,VWS V14.00,2013-08-21 09:41:00,
2013-08-21 04:46:00,70.4,0.0,30.05,SSE,167,0.0,0.0,0,0.00,,---,0.00,VWS V14.00,2013-08-21 09:46:00,
2013-08-21 04:51:00,70.4,0.0,30.05,SSE,167,0.0,0.0,0,0.00,,---,0.00,VWS V14.00,2013-08-21 09:51:00,
2013-08-21 04:56:00,70.4,0.0,30.05,SSE,167,0.0,0.0,0,0.00,,---,0.00,VWS V14.00,2013-08-21 09:56:00,
2013-08-21 05:01:00,70.4,0.0,30.05,SSE,147,0.0,0.0,0,0.00,,---,0.00,VWS V14.00,2013-08-21 10:01:00,
2013-08-21 05:06:00,70.4,0.0,30.05,SSE,148,0.0,0.0,0,0.00,,---,0.00,VWS V14.00,2013-08-21 10:06:00,
2013-08-21 05:12:00,70.4,0.0,30.05,SSE,148,0.0,0.0,0,0.00,,---,0.00,VWS V14.00,2013-08-21 10:12:00,
2013-08-21 05:17:00,70.4,0.0,30.05,SSE,148,0.0,0.0,0,0.00,,---,0.00,VWS V14.00,2013-08-21 10:17:00,
2013-08-21 05:22:00,70.4,0.0,30.05,SSE,148,0.0,0.0,0,0.00,,---,0.00,VWS V14.00,2013-08-21 10:22:00,
2013-08-21 05:27:00,70.4,0.0,30.05,SSE,148,0.0,0.0,0,0.00,,---,0.00,VWS V14.00,2013-08-21 10:27:00,
2013-08-21 05:32:00,70.6,0.0,30.05,SSE,161,0.0,0.0,0,0.00,,---,0.00,VWS V14.00,2013-08-21 10:32:00,
2013-08-21 05:37:00,70.6,0.0,30.05,SSE,161,0.0,0.0,0,0.00,,---,0.00,VWS V14.00,2013-08-21 10:37:00,
2013-08-21 05:42:00,70.8,0.0,30.05,SSE,161,0.0,0.0,0,0.00,,---,0.00,VWS V14.00,2013-08-21 10:42:00,
2013-08-21 05:47:00,70.8,0.0,30.05,SE,144,0.0,0.0,0,0.00,,---,0.00,VWS V14.00,2013-08-21 10:47:00,
2013-08-21 05:52:00,70.8,0.0,30.05,SE,137,0.0,0.0,0,0.00,,---,0.00,VWS V14.00,2013-08-21 10:52:00,
2013-08-21 05:57:00,70.6,0.0,30.05,SE,137,0.0,0.0,0,0.00,,---,0.00,VWS V14.00,2013-08-21 10:57:00,
2013-08-21 06:02:00,70.6,0.0,30.05,South,175,0.0,1.0,0,0.00,,---,0.00,VWS V14.00,2013-08-21 11:02:00,
2013-08-21 06:07:00,70.6,0.0,30.05,South,175,0.0,1.0,0,0.00,,---,0.00,VWS V14.00,2013-08-21 11:07:00,
2013-08-21 06:12:00,70.4,0.0,30.05,South,175,0.0,1.0,0,0.00,,---,0.00,VWS V14.00,2013-08-21 11:12:00,
2013-08-21 06:17:00,70.4,0.0,30.05,South,175,0.0,1.0,0,0.00,,---,0.00,VWS V14.00,2013-08-21 11:17:00,
2013-08-21 06:22:00,70.3,0.0,30.05,South,175,0.0,1.0,0,0.00,,---,0.00,VWS V14.00,2013-08-21 11:22:00,
2013-08-21 06:27:00,70.3,0.0,30.05,South,175,0.0,1.0,0,0.00,,---,0.00,VWS V14.00,2013-08-21 11:27:00,
2013-08-21 06:32:00,70.3,0.0,30.05,South,175,0.0,0.0,0,0.00,,---,0.00,VWS V14.00,2013-08-21 11:32:00,
2013-08-21 06:38:00,70.3,0.0,30.05,South,175,0.0,0.0,0,0.00,,---,0.00,VWS V14.00,2013-08-21 11:38:00,
2013-08-21 06:43:00,70.4,0.0,30.05,South,175,0.0,0.0,0,0.00,,---,0.00,VWS V14.00,2013-08-21 11:43:00,
2013-08-21 06:48:00,70.6,0.0,30.05,South,175,0.0,0.0,0,0.00,,---,0.00,VWS V14.00,2013-08-21 11:48:00,
2013-08-21 06:53:00,70.8,0.0,30.05,South,176,1.0,1.0,0,0.00,,---,0.00,VWS V14.00,2013-08-21 11:53:00,
2013-08-21 06:58:00,70.9,0.0,30.05,South,176,0.0,1.0,0,0.00,,---,0.00,VWS V14.00,2013-08-21 11:58:00,
2013-08-21 07:03:00,71.1,0.0,30.05,South,176,0.0,0.0,0,0.00,,---,0.00,VWS V14.00,2013-08-21 12:03:00,
2013-08-21 07:08:00,71.5,0.0,30.05,South,191,0.0,6.0,0,0.00,,---,0.00,VWS V14.00,2013-08-21 12:08:00,
2013-08-21 07:13:00,71.8,0.0,30.06,SSW,194,0.0,6.0,0,0.00,,---,0.00,VWS V14.00,2013-08-21 12:13:00,
2013-08-21 07:18:00,72.1,0.0,30.06,SSW,200,0.0,6.0,0,0.00,,---,0.00,VWS V14.00,2013-08-21 12:18:00,
2013-08-21 07:23:00,72.3,0.0,30.06,South,184,0.0,7.0,0,0.00,,---,0.00,VWS V14.00,2013-08-21 12:23:00,
2013-08-21 07:28:00,72.3,0.0,30.06,South,184,0.0,7.0,0,0.00,,---,0.00,VWS V14.00,2013-08-21 12:28:00,
2013-08-21 07:33:00,72.3,0.0,30.06,SSE,159,0.0,1.0,0,0.00,,---,0.00,VWS V14.00,2013-08-21 12:33:00,
2013-08-21 07:38:00,72.5,0.0,30.06,South,184,0.0,1.0,0,0.00,,---,0.00,VWS V14.00,2013-08-21 12:38:00,
2013-08-21 07:43:00,72.7,0.0,30.06,South,180,0.0,7.0,0,0.00,,---,0.00,VWS V14.00,2013-08-21 12:43:00,
2013-08-21 07:48:00,72.7,0.0,30.06,SSW,195,0.0,7.0,0,0.00,,---,0.00,VWS V14.00,2013-08-21 12:48:00,
2013-08-21 07:53:00,73.0,0.0,30.06,South,185,1.0,7.0,0,0.00,,---,0.00,VWS V14.00,2013-08-21 12:53:00,
2013-08-21 07:59:00,73.0,0.0,30.06,South,184,0.0,7.0,0,0.00,,---,0.00,VWS V14.00,2013-08-21 12:59:00,
2013-08-21 08:04:00,73.2,0.0,30.06,South,188,2.0,6.0,0,0.00,,---,0.00,VWS V14.00,2013-08-21 13:04:00,
2013-08-21 08:09:00,73.7,0.0,30.06,South,181,1.0,6.0,0,0.00,,---,0.00,VWS V14.00,2013-08-21 13:09:00,
2013-08-21 08:14:00,74.4,0.0,30.06,South,183,0.0,6.0,0,0.00,,---,0.00,VWS V14.00,2013-08-21 13:14:00,
2013-08-21 08:19:00,75.1,0.0,30.06,SW,225,0.0,6.0,0,0.00,,---,0.00,VWS V14.00,2013-08-21 13:19:00,
2013-08-21 08:24:00,75.6,0.0,30.05,SSW,197,0.0,6.0,0,0.00,,---,0.00,VWS V14.00,2013-08-21 13:24:00,
2013-08-21 08:29:00,76.0,0.0,30.06,South,188,0.0,6.0,0,0.00,,---,0.00,VWS V14.00,2013-08-21 13:29:00,
2013-08-21 08:34:00,76.3,0.0,30.06,South,189,4.0,4.0,0,0.00,,---,0.00,VWS V14.00,2013-08-21 13:34:00,
2013-08-21 08:39:00,76.7,0.0,30.06,South,172,0.0,5.0,0,0.00,,---,0.00,VWS V14.00,2013-08-21 13:39:00,
2013-08-21 08:44:00,76.8,0.0,30.06,South,170,0.0,5.0,0,0.00,,---,0.00,VWS V14.00,2013-08-21 13:44:00,
2013-08-21 08:49:00,77.2,0.0,30.06,SE,138,0.0,5.0,0,0.00,,---,0.00,VWS V14.00,2013-08-21 13:49:00,
2013-08-21 08:54:00,77.2,0.0,30.05,South,171,0.0,5.0,0,0.00,,---,0.00,VWS V14.00,2013-08-21 13:54:00,
2013-08-21 08:59:00,77.4,0.0,30.05,SSW,212,0.0,6.0,0,0.00,,---,0.00,VWS V14.00,2013-08-21 13:59:00,
2013-08-21 09:04:00,77.4,0.0,30.06,SW,234,0.0,0.0,0,0.00,,---,0.00,VWS V14.00,2013-08-21 14:04:00,
2013-08-21 09:09:00,77.7,0.0,30.05,SW,217,0.0,0.0,0,0.00,,---,0.00,VWS V14.00,2013-08-21 14:09:00,
2013-08-21 09:14:00,78.1,0.0,30.05,South,184,0.0,3.0,0,0.00,,---,0.00,VWS V14.00,2013-08-21 14:14:00,
2013-08-21 09:19:00,78.3,0.0,30.05,South,186,0.0,9.0,0,0.00,,---,0.00,VWS V14.00,2013-08-21 14:19:00,
2013-08-21 09:25:00,79.0,0.0,30.06,SSW,209,0.0,9.0,0,0.00,,---,0.00,VWS V14.00,2013-08-21 14:25:00,
2013-08-21 09:30:00,79.4,0.0,30.06,SSW,207,0.0,9.0,0,0.00,,---,0.00,VWS V14.00,2013-08-21 14:30:00,
2013-08-21 09:35:00,79.6,0.0,30.05,South,177,0.0,5.0,0,0.00,,---,0.00,VWS V14.00,2013-08-21 14:35:00,
2013-08-21 09:40:00,79.2,0.0,30.05,SSW,195,0.0,5.0,0,0.00,,---,0.00,VWS V14.00,2013-08-21 14:40:00,
2013-08-21 09:45:00,79.8,0.0,30.06,SSW,202,0.0,5.0,0,0.00,,---,0.00,VWS V14.00,2013-08-21 14:45:00,
2013-08-21 09:50:00,80.3,0.0,30.06,South,180,3.0,7.0,0,0.00,,---,0.00,VWS V14.00,2013-08-21 14:50:00,
2013-08-21 09:55:00,80.5,0.0,30.05,SSW,194,0.0,7.0,0,0.00,,---,0.00,VWS V14.00,2013-08-21 14:55:00,
2013-08-21 10:00:00,80.7,0.0,30.06,SE,146,0.0,7.0,0,0.00,,---,0.00,VWS V14.00,2013-08-21 15:00:00,
2013-08-21 10:05:00,80.9,0.0,30.06,South,178,0.0,0.0,0,0.00,,---,0.00,VWS V14.00,2013-08-21 15:05:00,
2013-08-21 10:10:00,81.2,0.0,30.06,SW,218,0.0,9.0,0,0.00,,---,0.00,VWS V14.00,2013-08-21 15:10:00,
2013-08-21 10:15:00,81.4,0.0,30.06,SW,220,0.0,9.0,0,0.00,,---,0.00,VWS V14.00,2013-08-21 15:15:00,
2013-08-21 10:20:00,82.0,0.0,30.05,SW,223,0.0,9.0,0,0.00,,---,0.00,VWS V14.00,2013-08-21 15:20:00,
2013-08-21 10:25:00,82.6,0.0,30.05,WSW,244,0.0,9.0,0,0.00,,---,0.00,VWS V14.00,2013-08-21 15:25:00,
2013-08-21 10:30:00,82.8,0.0,30.05,South,180,8.0,9.0,0,0.00,,---,0.00,VWS V14.00,2013-08-21 15:30:00,
2013-08-21 10:35:00,82.6,0.0,30.06,West,259,0.0,9.0,0,0.00,,---,0.00,VWS V14.00,2013-08-21 15:35:00,
2013-08-21 10:40:00,83.0,0.0,30.05,WNW,292,0.0,9.0,0,0.00,,---,0.00,VWS V14.00,2013-08-21 15:40:00,
2013-08-21 10:45:00,83.4,0.0,30.06,South,190,0.0,9.0,0,0.00,,---,0.00,VWS V14.00,2013-08-21 15:45:00,
2013-08-21 10:51:00,83.8,0.0,30.05,SW,235,0.0,10.0,0,0.00,,---,0.00,VWS V14.00,2013-08-21 15:51:00,
2013-08-21 10:56:00,84.0,0.0,30.05,SW,232,4.0,10.0,0,0.00,,---,0.00,VWS V14.00,2013-08-21 15:56:00,
2013-08-21 11:01:00,84.1,0.0,30.05,WSW,252,1.0,1.0,0,0.00,,---,0.00,VWS V14.00,2013-08-21 16:01:00,
2013-08-21 11:06:00,84.3,0.0,30.05,SSW,211,0.0,11.0,0,0.00,,---,0.00,VWS V14.00,2013-08-21 16:06:00,
2013-08-21 11:11:00,84.3,0.0,30.05,WSW,252,0.0,11.0,0,0.00,,---,0.00,VWS V14.00,2013-08-21 16:11:00,
2013-08-21 11:16:00,84.7,0.0,30.05,SSW,198,0.0,11.0,0,0.00,,---,0.00,VWS V14.00,2013-08-21 16:16:00,
2013-08-21 11:21:00,85.1,0.0,30.05,South,184,7.0,12.0,0,0.00,,---,0.00,VWS V14.00,2013-08-21 16:21:00,
2013-08-21 11:26:00,85.1,0.0,30.05,WSW,244,0.0,12.0,0,0.00,,---,0.00,VWS V14.00,2013-08-21 16:26:00,
2013-08-21 11:31:00,85.3,0.0,30.05,SSW,196,0.0,0.0,0,0.00,,---,0.00,VWS V14.00,2013-08-21 16:31:00,
2013-08-21 11:36:00,85.9,0.0,30.05,SSE,161,0.0,10.0,0,0.00,,---,0.00,VWS V14.00,2013-08-21 16:36:00,
2013-08-21 11:41:00,85.9,0.0,30.05,SSE,167,0.0,10.0,0,0.00,,---,0.00,VWS V14.00,2013-08-21 16:41:00,
2013-08-21 11:46:00,85.5,0.0,30.05,SW,221,0.0,11.0,0,0.00,,---,0.00,VWS V14.00,2013-08-21 16:46:00,
2013-08-21 11:51:00,85.3,0.0,30.05,South,178,0.0,11.0,0,0.00,,---,0.00,VWS V14.00,2013-08-21 16:51:00,
2013-08-21 11:56:00,84.5,0.0,30.05,SW,215,0.0,13.0,0,0.00,,---,0.00,VWS V14.00,2013-08-21 16:56:00,
2013-08-21 12:01:00,84.3,0.0,30.05,South,180,0.0,0.0,0,0.00,,---,0.00,VWS V14.00,2013-08-21 17:01:00,
2013-08-21 12:06:00,84.5,0.0,30.05,West,264,7.0,7.0,0,0.00,,---,0.00,VWS V14.00,2013-08-21 17:06:00,
2013-08-21 12:12:00,84.5,0.0,30.04,SSE,148,3.0,12.0,0,0.00,,---,0.00,VWS V14.00,2013-08-21 17:12:00,
2013-08-21 12:17:00,84.9,0.0,30.04,SSW,209,0.0,12.0,0,0.00,,---,0.00,VWS V14.00,2013-08-21 17:17:00,
2013-08-21 12:22:00,85.5,0.0,30.04,SSE,147,0.0,12.0,0,0.00,,---,0.00,VWS V14.00,2013-08-21 17:22:00,
2013-08-21 12:27:00,85.7,0.0,30.04,SW,219,0.0,12.0,0,0.00,,---,0.00,VWS V14.00,2013-08-21 17:27:00,
2013-08-21 12:32:00,86.1,0.0,30.04,WSW,258,4.0,4.0,0,0.00,,---,0.00,VWS V14.00,2013-08-21 17:32:00,
2013-08-21 12:37:00,85.7,0.0,30.04,SSW,200,0.0,13.0,0,0.00,,---,0.00,VWS V14.00,2013-08-21 17:37:00,
2013-08-21 12:42:00,85.9,0.0,30.04,SE,138,0.0,13.0,0,0.00,,---,0.00,VWS V14.00,2013-08-21 17:42:00,
2013-08-21 12:47:00,85.7,0.0,30.04,South,174,0.0,13.0,0,0.00,,---,0.00,VWS V14.00,2013-08-21 17:47:00,
2013-08-21 12:52:00,85.5,0.0,30.04,WSW,238,0.0,13.0,0,0.00,,---,0.00,VWS V14.00,2013-08-21 17:52:00,
2013-08-21 12:57:00,85.1,0.0,30.04,SW,231,0.0,13.0,0,0.00,,---,0.00,VWS V14.00,2013-08-21 17:57:00,
2013-08-21 13:02:00,85.1,0.0,30.04,SSW,198,0.0,11.0,0,0.00,,---,0.00,VWS V14.00,2013-08-21 18:02:00,
2013-08-21 13:07:00,85.5,0.0,30.03,SW,215,0.0,11.0,0,0.00,,---,0.00,VWS V14.00,2013-08-21 18:07:00,
2013-08-21 13:12:00,86.3,0.0,30.03,SSW,205,0.0,11.0,0,0.00,,---,0.00,VWS V14.00,2013-08-21 18:12:00,
2013-08-21 13:17:00,86.5,0.0,30.03,SSW,213,0.0,13.0,0,0.00,,---,0.00,VWS V14.00,2013-08-21 18:17:00,
2013-08-21 13:22:00,86.3,0.0,30.03,South,176,0.0,15.0,0,0.00,,---,0.00,VWS V14.00,2013-08-21 18:22:00,
2013-08-21 13:27:00,86.3,0.0,30.03,West,275,0.0,15.0,0,0.00,,---,0.00,VWS V14.00,2013-08-21 18:27:00,
2013-08-21 13:32:00,86.3,0.0,30.03,SSW,207,0.0,0.0,0,0.00,,---,0.00,VWS V14.00,2013-08-21 18:32:00,
2013-08-21 13:38:00,86.1,0.0,30.03,WSW,240,1.0,13.0,0,0.00,,---,0.00,VWS V14.00,2013-08-21 18:38:00,
2013-08-21 13:43:00,85.9,0.0,30.03,SSW,192,6.0,13.0,0,0.00,,---,0.00,VWS V14.00,2013-08-21 18:43:00,
2013-08-21 13:48:00,85.7,0.0,30.03,SSW,203,3.0,16.0,0,0.00,,---,0.00,VWS V14.00,2013-08-21 18:48:00,
2013-08-21 13:53:00,85.7,0.0,30.03,SSE,163,0.0,16.0,0,0.00,,---,0.00,VWS V14.00,2013-08-21 18:53:00,
2013-08-21 13:58:00,85.9,0.0,30.03,SSE,157,0.0,16.0,0,0.00,,---,0.00,VWS V14.00,2013-08-21 18:58:00,
2013-08-21 14:03:00,86.1,0.0,30.03,SSW,196,0.0,3.0,0,0.00,,---,0.00,VWS V14.00,2013-08-21 19:03:00,
2013-08-21 14:08:00,86.1,0.0,30.03,South,184,0.0,10.0,0,0.00,,---,0.00,VWS V14.00,2013-08-21 19:08:00,
2013-08-21 14:13:00,85.9,0.0,30.03,WSW,246,0.0,13.0,0,0.00,,---,0.00,VWS V14.00,2013-08-21 19:13:00,
2013-08-21 14:18:00,85.7,0.0,30.03,SSW,207,0.0,13.0,0,0.00,,---,0.00,VWS V14.00,2013-08-21 19:18:00,
2013-08-21 14:23:00,86.1,0.0,30.02,WSW,248,4.0,13.0,0,0.00,,---,0.00,VWS V14.00,2013-08-21 19:23:00,
2013-08-21 14:28:00,87.0,0.0,30.02,South,179,7.0,14.0,0,0.00,,---,0.00,VWS V14.00,2013-08-21 19:28:00,
2013-08-21 14:33:00,87.8,0.0,30.02,South,177,0.0,1.0,0,0.00,,---,0.00,VWS V14.00,2013-08-21 19:33:00,
2013-08-21 14:38:00,88.0,0.0,30.02,SSE,165,0.0,12.0,0,0.00,,---,0.00,VWS V14.00,2013-08-21 19:38:00,
2013-08-21 14:43:00,87.8,0.0,30.02,SW,235,0.0,12.0,0,0.00,,---,0.00,VWS V14.00,2013-08-21 19:43:00,
2013-08-21 14:48:00,88.2,0.0,30.01,SW,214,0.0,12.0,0,0.00,,---,0.00,VWS V14.00,2013-08-21 19:48:00,
2013-08-21 14:53:00,88.6,0.0,30.01,SSW,192,0.0,12.0,0,0.00,,---,0.00,VWS V14.00,2013-08-21 19:53:00,
2013-08-21 14:59:00,88.6,0.0,30.01,SSE,160,0.0,12.0,0,0.00,,---,0.00,VWS V14.00,2013-08-21 19:59:00,
2013-08-21 15:04:00,88.4,0.0,30.01,South,173,4.0,12.0,0,0.00,,---,0.00,VWS V14.00,2013-08-21 20:04:00,
2013-08-21 15:09:00,88.2,0.0,30.01,South,191,0.0,13.0,0,0.00,,---,0.00,VWS V14.00,2013-08-21 20:09:00,
2013-08-21 15:14:00,88.6,0.0,30.01,South,188,0.0,13.0,0,0.00,,---,0.00,VWS V14.00,2013-08-21 20:14:00,
2013-08-21 15:19:00,88.2,0.0,30.01,SSW,205,0.0,13.0,0,0.00,,---,0.00,VWS V14.00,2013-08-21 20:19:00,
2013-08-21 15:24:00,88.6,0.0,30.00,WSW,237,6.0,13.0,0,0.00,,---,0.00,VWS V14.00,2013-08-21 20:24:00,
2013-08-21 15:29:00,88.8,0.0,30.00,SW,215,0.0,14.0,0,0.00,,---,0.00,VWS V14.00,2013-08-21 20:29:00,
2013-08-21 15:34:00,88.8,0.0,30.00,South,191,0.0,11.0,0,0.00,,---,0.00,VWS V14.00,2013-08-21 20:34:00,
2013-08-21 15:39:00,89.3,0.0,30.00,SSE,161,0.0,14.0,0,0.00,,---,0.00,VWS V14.00,2013-08-21 20:39:00,
2013-08-21 15:44:00,88.6,0.0,30.00,South,183,4.0,16.0,0,0.00,,---,0.00,VWS V14.00,2013-08-21 20:44:00,
2013-08-21 15:49:00,89.0,0.0,30.00,SSW,205,11.0,16.0,0,0.00,,---,0.00,VWS V14.00,2013-08-21 20:49:00,
2013-08-21 15:54:00,89.3,0.0,30.00,WSW,243,6.0,16.0,0,0.00,,---,0.00,VWS V14.00,2013-08-21 20:54:00,
2013-08-21 15:59:00,89.0,0.0,30.00,SE,134,0.0,16.0,0,0.00,,---,0.00,VWS V14.00,2013-08-21 20:59:00,
2013-08-21 16:04:00,88.8,0.0,30.00,WSW,248,0.0,14.0,0,0.00,,---,0.00,VWS V14.00,2013-08-21 21:04:00,
2013-08-21 16:09:00,88.8,0.0,29.99,SSW,192,0.0,14.0,0,0.00,,---,0.00,VWS V14.00,2013-08-21 21:09:00,
2013-08-21 16:14:00,89.0,0.0,30.00,WSW,258,2.0,14.0,0,0.00,,---,0.00,VWS V14.00,2013-08-21 21:14:00,
2013-08-21 16:20:00,88.4,0.0,29.99,SW,219,0.0,14.0,0,0.00,,---,0.00,VWS V14.00,2013-08-21 21:20:00,
2013-08-21 16:25:00,88.2,0.0,29.99,SW,225,6.0,14.0,0,0.00,,---,0.00,VWS V14.00,2013-08-21 21:25:00,
2013-08-21 16:30:00,88.2,0.0,29.99,SW,228,0.0,14.0,0,0.00,,---,0.00,VWS V14.00,2013-08-21 21:30:00,
2013-08-21 16:35:00,88.4,0.0,29.99,SW,232,0.0,10.0,0,0.00,,---,0.00,VWS V14.00,2013-08-21 21:35:00,
2013-08-21 16:40:00,88.4,0.0,29.99,SSW,196,0.0,15.0,0,0.00,,---,0.00,VWS V14.00,2013-08-21 21:40:00,
2013-08-21 16:45:00,88.4,0.0,29.99,South,180,6.0,15.0,0,0.00,,---,0.00,VWS V14.00,2013-08-21 21:45:00,
2013-08-21 16:50:00,87.8,0.0,29.99,SW,217,3.0,15.0,0,0.00,,---,0.00,VWS V14.00,2013-08-21 21:50:00,
2013-08-21 16:55:00,88.0,0.0,29.98,SSE,163,0.0,15.0,0,0.00,,---,0.00,VWS V14.00,2013-08-21 21:55:00,
2013-08-21 17:00:00,88.2,0.0,29.98,South,187,4.0,15.0,0,0.00,,---,0.00,VWS V14.00,2013-08-21 22:00:00,
2013-08-21 17:05:00,88.2,0.0,29.98,South,175,0.0,12.0,0,0.00,,---,0.00,VWS V14.00,2013-08-21 22:05:00,
2013-08-21 17:10:00,88.0,0.0,29.98,WSW,242,0.0,12.0,0,0.00,,---,0.00,VWS V14.00,2013-08-21 22:10:00,
2013-08-21 17:15:00,87.8,0.0,29.98,SSW,192,0.0,12.0,0,0.00,,---,0.00,VWS V14.00,2013-08-21 22:15:00,
2013-08-21 17:20:00,87.2,0.0,29.98,SSW,201,0.0,12.0,0,0.00,,---,0.00,VWS V14.00,2013-08-21 22:20:00,
2013-08-21 17:25:00,86.5,0.0,29.98,SSW,213,0.0,12.0,0,0.00,,---,0.00,VWS V14.00,2013-08-21 22:25:00,
2013-08-21 17:30:00,86.7,0.0,29.97,SE,142,0.0,12.0,0,0.00,,---,0.00,VWS V14.00,2013-08-21 22:30:00,
2013-08-21 17:35:00,86.7,0.0,29.97,SSW,193,0.0,1.0,0,0.00,,---,0.00,VWS V14.00,2013-08-21 22:35:00,
2013-08-21 17:40:00,86.5,0.0,29.97,South,170,0.0,12.0,0,0.00,,---,0.00,VWS V14.00,2013-08-21 22:40:00,
2013-08-21 17:46:00,86.5,0.0,29.97,WSW,241,0.0,12.0,0,0.00,,---,0.00,VWS V14.00,2013-08-21 22:46:00,
2013-08-21 17:51:00,86.7,0.0,29.96,WSW,240,0.0,12.0,0,0.00,,---,0.00,VWS V14.00,2013-08-21 22:51:00,
2013-08-21 17:56:00,86.7,0.0,29.97,SW,235,0.0,12.0,0,0.00,,---,0.00,VWS V14.00,2013-08-21 22:56:00,
2013-08-21 18:01:00,86.5,0.0,29.97,WSW,245,0.0,0.0,0,0.00,,---,0.00,VWS V14.00,2013-08-21 23:01:00,
2013-08-21 18:06:00,86.3,0.0,29.96,SSW,209,2.0,11.0,0,0.00,,---,0.00,VWS V14.00,2013-08-21 23:06:00,
2013-08-21 18:11:00,85.9,0.0,29.96,SSW,201,0.0,12.0,0,0.00,,---,0.00,VWS V14.00,2013-08-21 23:11:00,
2013-08-21 18:16:00,85.7,0.0,29.96,SSE,157,5.0,12.0,0,0.00,,---,0.00,VWS V14.00,2013-08-21 23:16:00,
2013-08-21 18:21:00,85.3,0.0,29.96,SSW,194,1.0,14.0,0,0.00,,---,0.00,VWS V14.00,2013-08-21 23:21:00,
2013-08-21 18:26:00,85.1,0.0,29.96,South,188,0.0,14.0,0,0.00,,---,0.00,VWS V14.00,2013-08-21 23:26:00,
2013-08-21 18:31:00,84.9,0.0,29.96,SSE,165,0.0,0.0,0,0.00,,---,0.00,VWS V14.00,2013-08-21 23:31:00,
2013-08-21 18:36:00,84.7,0.0,29.96,SW,226,0.0,0.0,0,0.00,,---,0.00,VWS V14.00,2013-08-21 23:36:00,
2013-08-21 18:41:00,84.5,0.0,29.95,SW,227,0.0,6.0,0,0.00,,---,0.00,VWS V14.00,2013-08-21 23:41:00,
2013-08-21 18:46:00,84.3,0.0,29.95,SW,232,0.0,6.0,0,0.00,,---,0.00,VWS V14.00,2013-08-21 23:46:00,
2013-08-21 18:52:00,84.0,0.0,29.95,SSW,213,0.0,9.0,0,0.00,,---,0.00,VWS V14.00,2013-08-21 23:52:00,
2013-08-21 18:57:00,83.8,0.0,29.96,South,187,0.0,9.0,0,0.00,,---,0.00,VWS V14.00,2013-08-21 23:57:00,
2013-08-21 19:02:00,83.6,0.0,29.96,WSW,241,0.0,2.0,0,0.00,,---,0.00,VWS V14.00,2013-08-22 00:02:00,
2013-08-21 19:07:00,83.4,0.0,29.96,WSW,240,0.0,5.0,0,0.00,,---,0.00,VWS V14.00,2013-08-22 00:07:00,
2013-08-21 19:12:00,83.2,0.0,29.97,SW,234,0.0,5.0,0,0.00,,---,0.00,VWS V14.00,2013-08-22 00:12:00,
2013-08-21 19:17:00,83.0,0.0,29.97,South,186,0.0,5.0,0,0.00,,---,0.00,VWS V14.00,2013-08-22 00:17:00,
2013-08-21 19:22:00,82.8,0.0,29.97,West,260,0.0,5.0,0,0.00,,---,0.00,VWS V14.00,2013-08-22 00:22:00,
2013-08-21 19:27:00,82.6,0.0,29.97,SSW,212,0.0,5.0,0,0.00,,---,0.00,VWS V14.00,2013-08-22 00:27:00,
2013-08-21 19:32:00,82.4,0.0,29.97,South,173,0.0,0.0,0,0.00,,---,0.00,VWS V14.00,2013-08-22 00:32:00,
2013-08-21 19:37:00,82.2,0.0,29.98,South,177,0.0,0.0,0,0.00,,---,0.00,VWS V14.00,2013-08-22 00:37:00,
2013-08-21 19:43:00,82.0,0.0,29.98,SW,232,0.0,0.0,0,0.00,,---,0.00,VWS V14.00,2013-08-22 00:43:00,
2013-08-21 19:48:00,81.8,0.0,29.98,WSW,240,0.0,0.0,0,0.00,,---,0.00,VWS V14.00,2013-08-22 00:48:00,
2013-08-21 19:53:00,81.6,0.0,29.98,SW,225,0.0,0.0,0,0.00,,---,0.00,VWS V14.00,2013-08-22 00:53:00,
2013-08-21 19:58:00,81.4,0.0,29.99,SSW,211,0.0,0.0,0,0.00,,---,0.00,VWS V14.00,2013-08-22 00:58:00,
2013-08-21 20:03:00,81.2,0.0,29.99,SSW,210,0.0,0.0,0,0.00,,---,0.00,VWS V14.00,2013-08-22 01:03:00,
2013-08-21 20:08:00,81.1,0.0,29.99,SSW,205,0.0,0.0,0,0.00,,---,0.00,VWS V14.00,2013-08-22 01:08:00,
2013-08-21 20:13:00,80.9,0.0,29.99,South,186,0.0,0.0,0,0.00,,---,0.00,VWS V14.00,2013-08-22 01:13:00,
2013-08-21 20:18:00,80.7,0.0,29.99,South,186,0.0,0.0,0,0.00,,---,0.00,VWS V14.00,2013-08-22 01:18:00,
2013-08-21 20:23:00,80.7,0.0,30.00,South,186,0.0,0.0,0,0.00,,---,0.00,VWS V14.00,2013-08-22 01:23:00,
2013-08-21 20:28:00,80.7,0.0,30.00,South,187,0.0,0.0,0,0.00,,---,0.00,VWS V14.00,2013-08-22 01:28:00,
2013-08-21 20:33:00,80.9,0.0,30.01,South,187,0.0,0.0,0,0.00,,---,0.00,VWS V14.00,2013-08-22 01:33:00,
2013-08-21 20:38:00,80.9,0.0,30.01,WSW,237,0.0,0.0,0,0.00,,---,0.00,VWS V14.00,2013-08-22 01:38:00,
2013-08-21 20:43:00,80.9,0.0,30.01,WSW,237,0.0,0.0,0,0.00,,---,0.00,VWS V14.00,2013-08-22 01:43:00,
2013-08-21 20:48:00,80.7,0.0,30.01,WSW,238,0.0,0.0,0,0.00,,---,0.00,VWS V14.00,2013-08-22 01:48:00,
2013-08-21 20:53:00,80.7,0.0,30.01,WSW,238,0.0,0.0,0,0.00,,---,0.00,VWS V14.00,2013-08-22 01:53:00,
2013-08-21 20:59:00,80.5,0.0,30.01,WSW,238,0.0,0.0,0,0.00,,---,0.00,VWS V14.00,2013-08-22 01:59:00,
2013-08-21 21:04:00,80.3,0.0,30.01,WSW,239,0.0,0.0,0,0.00,,---,0.00,VWS V14.00,2013-08-22 02:04:00,
2013-08-21 21:09:00,80.1,0.0,30.01,WSW,239,0.0,0.0,0,0.00,,---,0.00,VWS V14.00,2013-08-22 02:09:00,
2013-08-21 21:14:00,79.9,0.0,30.02,WSW,239,0.0,0.0,0,0.00,,---,0.00,VWS V14.00,2013-08-22 02:14:00,
2013-08-21 21:19:00,79.8,0.0,30.02,WSW,239,0.0,0.0,0,0.00,,---,0.00,VWS V14.00,2013-08-22 02:19:00,
2013-08-21 21:24:00,79.6,0.0,30.02,WSW,239,0.0,0.0,0,0.00,,---,0.00,VWS V14.00,2013-08-22 02:24:00,
2013-08-21 21:29:00,79.6,0.0,30.02,WSW,239,0.0,0.0,0,0.00,,---,0.00,VWS V14.00,2013-08-22 02:29:00,
2013-08-21 21:34:00,79.4,0.0,30.02,WSW,239,0.0,0.0,0,0.00,,---,0.00,VWS V14.00,2013-08-22 02:34:00,
2013-08-21 21:39:00,79.4,0.0,30.02,WSW,239,0.0,0.0,0,0.00,,---,0.00,VWS V14.00,2013-08-22 02:39:00,
2013-08-21 21:44:00,79.4,0.0,30.03,WSW,239,0.0,0.0,0,0.00,,---,0.00,VWS V14.00,2013-08-22 02:44:00,
2013-08-21 21:49:00,79.6,0.0,30.03,WSW,239,0.0,0.0,0,0.00,,---,0.00,VWS V14.00,2013-08-22 02:49:00,
2013-08-21 21:54:00,79.6,0.0,30.03,WSW,239,0.0,0.0,0,0.00,,---,0.00,VWS V14.00,2013-08-22 02:54:00,
2013-08-21 21:59:00,79.4,0.0,30.02,WSW,239,0.0,0.0,0,0.00,,---,0.00,VWS V14.00,2013-08-22 02:59:00,
2013-08-21 22:04:00,79.2,0.0,30.02,WSW,239,0.0,0.0,0,0.00,,---,0.00,VWS V14.00,2013-08-22 03:04:00,
2013-08-21 22:09:00,79.0,0.0,30.03,WSW,239,0.0,0.0,0,0.00,,---,0.00,VWS V14.00,2013-08-22 03:09:00,
2013-08-21 22:15:00,79.0,0.0,30.03,WSW,239,0.0,0.0,0,0.00,,---,0.00,VWS V14.00,2013-08-22 03:15:00,
2013-08-21 22:20:00,78.8,0.0,30.03,WSW,239,0.0,0.0,0,0.00,,---,0.00,VWS V14.00,2013-08-22 03:20:00,
2013-08-21 22:25:00,78.6,0.0,30.03,WSW,239,0.0,0.0,0,0.00,,---,0.00,VWS V14.00,2013-08-22 03:25:00,
2013-08-21 22:30:00,78.6,0.0,30.03,WSW,239,0.0,0.0,0,0.00,,---,0.00,VWS V14.00,2013-08-22 03:30:00,
2013-08-21 22:35:00,78.5,0.0,30.03,WSW,239,0.0,0.0,0,0.00,,---,0.00,VWS V14.00,2013-08-22 03:35:00,
2013-08-21 22:40:00,78.5,0.0,30.03,WSW,239,0.0,0.0,0,0.00,,---,0.00,VWS V14.00,2013-08-22 03:40:00,
2013-08-21 22:45:00,78.5,0.0,30.03,WSW,239,0.0,0.0,0,0.00,,---,0.00,VWS V14.00,2013-08-22 03:45:00,
2013-08-21 22:50:00,78.3,0.0,30.03,WSW,239,0.0,0.0,0,0.00,,---,0.00,VWS V14.00,2013-08-22 03:50:00,
2013-08-21 22:55:00,78.1,0.0,30.03,WSW,239,0.0,0.0,0,0.00,,---,0.00,VWS V14.00,2013-08-22 03:55:00,
2013-08-21 23:00:00,78.1,0.0,30.03,WSW,239,0.0,0.0,0,0.00,,---,0.00,VWS V14.00,2013-08-22 04:00:00,
2013-08-21 23:01:00,78.1,0.0,30.03,WSW,239,0.0,0.0,0,0.00,,---,0.00,VWS V14.00,2013-08-22 04:01:00,
2013-08-21 23:02:00,77.9,0.0,30.03,WSW,239,0.0,0.0,0,0.00,,---,0.00,VWS V14.00,2013-08-22 04:02:00,
2013-08-21 23:07:00,77.7,0.0,30.03,WSW,239,0.0,0.0,0,0.00,,---,0.00,VWS V14.00,2013-08-22 04:07:00,
2013-08-21 23:12:00,77.6,0.0,30.03,WSW,239,0.0,0.0,0,0.00,,---,0.00,VWS V14.00,2013-08-22 04:12:00,
2013-08-21 23:19:00,77.4,0.0,30.02,WSW,239,0.0,0.0,0,0.00,,---,0.00,VWS V14.00,2013-08-22 04:19:00,
2013-08-21 23:24:00,77.0,0.0,30.02,WSW,239,0.0,0.0,0,0.00,,---,0.00,VWS V14.00,2013-08-22 04:24:00,
2013-08-21 23:29:00,76.5,0.0,30.02,WSW,239,0.0,0.0,0,0.00,,---,0.00,VWS V14.00,2013-08-22 04:29:00,
2013-08-21 23:34:00,76.1,0.0,30.02,WSW,239,0.0,0.0,0,0.00,,---,0.00,VWS V14.00,2013-08-22 04:34:00,
2013-08-21 23:39:00,76.0,0.0,30.02,WSW,239,0.0,0.0,0,0.00,,---,0.00,VWS V14.00,2013-08-22 04:39:00,
2013-08-21 23:44:00,76.0,0.0,30.01,WSW,239,0.0,0.0,0,0.00,,---,0.00,VWS V14.00,2013-08-22 04:44:00,
2013-08-21 23:49:00,75.8,0.0,30.01,WSW,239,0.0,0.0,0,0.00,,---,0.00,VWS V14.00,2013-08-22 04:49:00,
2013-08-21 23:54:00,75.4,0.0,30.01,WSW,239,0.0,0.0,0,0.00,,---,0.00,VWS V14.00,2013-08-22 04:54:00,
2013-08-21 23:59:00,75.3,0.0,30.01,WSW,239,0.0,0.0,0,0.00,,---,0.00,VWS V14.00,2013-08-22 04:59:00,